Theta_e
297 298 299 299 299 299 299 298 299 301 302 303 304 304 305 304 304 304 304 303 302 302 301 301 300 301 301 300 300 299 298 298 298 298 297 295 295 295 294 294 293 292 291 291 291 293 296 300 303 306 308 310 313 314 315 317 318 318 318 320 321 322 323 324 324 325 325 326 327 328 328 328 327 327 327 328 328 327 327 327 327 327 327 327 327 327
297 299 299 299 298 297 298 297 298 301 302 304 305 306 306 305 305 304 305 305 303 302 301 300 301 300 300 300 300 300 299 298 298 298 297 296 295 295 294 293 292 291 291 291 291 292 294 297 299 302 305 307 310 311 312 313 314 315 316 317 318 319 321 323 323 323 323 323 324 325 325 325 325 325 325 326 325 324 325 326 326 326 326 326 327 326
299 299 299 298 295 295 296 296 299 303 303 304 305 306 305 304 305 304 305 306 304 302 301 300 300 300 300 300 300 300 299 299 298 297 297 296 295 294 294 294 292 291 290 290 290 292 293 294 296 298 299 301 302 304 305 307 308 310 312 313 314 315 317 319 320 321 322 322 322 323 323 323 323 322 322 322 321 321 322 324 325 324 325 325 325 325
299 299 298 296 293 296 297 296 300 303 302 302 303 305 305 304 305 305 306 305 304 303 302 301 301 300 300 300 300 300 300 299 298 297 296 296 296 294 294 293 292 291 290 290 290 291 292 293 294 294 295 296 297 298 299 301 303 304 306 308 309 311 313 314 316 317 318 319 319 320 321 321 320 319 318 319 319 319 319 321 322 322 322 323 323 323
299 297 296 295 294 297 298 297 299 302 303 302 300 301 303 304 304 305 306 305 304 304 302 303 303 301 301 300 300 300 300 299 298 297 296 295 295 294 293 292 292 291 289 289 290 290 291 291 292 292 293 294 294 295 295 296 297 298 300 301 303 305 307 309 311 313 314 316 317 317 319 319 319 319 319 320 319 318 317 318 318 319 319 320 321 322
298 296 296 297 297 298 298 298 298 299 303 303 300 299 300 302 302 305 307 305 305 305 303 304 305 304 302 300 300 300 299 299 298 297 296 295 294 293 293 292 291 290 289 289 290 290 291 291 291 292 292 293 293 293 293 294 294 295 296 297 298 299 301 303 305 307 310 313 314 316 317 317 317 318 317 316 315 314 314 314 314 314 315 316 318 319
297 295 296 296 297 299 299 299 296 297 303 305 300 298 299 300 303 306 308 305 305 305 302 303 305 305 303 301 301 300 300 299 298 298 297 295 294 293 293 292 290 290 289 289 290 290 291 291 291 291 291 292 292 292 292 293 293 293 294 295 295 296 297 298 299 301 303 306 308 310 311 311 312 311 308 307 308 309 308 309 311 311 312 313 314 314
296 298 298 296 298 300 299 298 296 296 302 303 298 299 301 303 306 308 307 305 304 304 303 302 303 304 304 302 301 301 300 300 300 298 297 296 295 293 292 291 290 289 289 289 289 290 290 290 291 290 291 291 291 291 292 292 292 293 293 293 294 294 295 295 296 297 298 299 300 301 302 303 303 302 300 300 301 302 302 304 306 307 309 309 310 311
295 299 298 298 299 299 298 296 296 296 300 299 297 300 303 303 305 306 306 306 302 302 306 303 301 304 305 303 301 301 301 301 301 300 298 297 296 294 292 291 290 290 289 289 289 289 290 290 290 290 290 290 291 291 291 291 292 292 292 293 293 294 294 294 294 295 295 296 296 296 297 297 297 296 296 296 296 296 297 298 299 301 302 303 305 305
295 296 295 298 299 297 297 296 295 295 297 296 296 300 302 301 303 303 304 305 302 304 307 303 301 303 306 305 303 302 302 302 302 300 298 297 296 295 294 292 291 290 290 290 290 290 290 290 290 290 290 290 291 290 291 291 291 292 292 292 293 293 293 293 293 293 294 294 294 295 295 295 294 294 294 294 294 294 294 295 295 296 297 297 299 299
294 295 295 296 298 296 296 295 293 293 294 295 298 303 304 304 304 304 301 300 304 310 307 301 300 301 304 306 305 304 304 302 302 301 298 297 297 296 295 293 291 291 290 290 291 291 291 290 290 290 290 290 290 290 291 291 291 291 291 291 292 292 292 292 292 292 293 293 293 294 294 293 293 293 293 294 294 294 294 294 294 293 294 294 294 295
294 296 297 295 296 296 295 295 293 292 293 297 303 306 305 304 304 304 304 303 308 313 305 301 300 299 303 306 304 304 304 301 300 300 299 298 297 296 296 294 292 292 291 291 291 291 291 291 291 291 291 290 290 290 290 290 290 291 291 291 291 292 291 291 292 292 292 292 293 293 293 293 293 293 293 293 293 293 293 293 293 293 293 293 293 293
298 297 296 294 295 294 296 299 298 296 296 300 308 308 304 305 305 306 309 306 308 309 301 300 300 299 302 305 304 304 303 300 298 298 298 297 296 296 295 294 293 293 293 292 292 292 291 291 291 291 291 291 290 290 290 290 290 290 290 290 291 291 291 291 291 291 292 292 292 292 292 292 292 292 292 292 292 292 292 292 292 292 292 292 292 292
305 302 297 297 297 294 296 299 300 299 298 300 304 304 303 305 306 308 308 302 302 305 300 298 300 303 305 304 303 303 300 299 298 298 298 297 296 295 295 294 294 293 293 293 292 292 292 292 291 291 291 291 291 290 290 290 290 290 289 289 290 290 290 290 290 291 291 291 291 291 291 291 291 291 291 291 291 291 291 291 291 291 291 291 291 291
304 304 299 298 297 295 296 296 296 297 297 297 297 299 302 304 303 304 306 302 300 302 299 297 300 307 308 303 300 299 297 297 298 298 298 297 296 295 296 295 295 294 294 293 293 292 292 292 292 292 291 291 291 291 291 291 290 290 290 289 289 289 289 289 290 290 290 290 290 290 291 290 291 291 290 290 290 290 290 290 290 290 290 290 290 290
299 300 297 296 294 294 296 294 293 295 297 296 295 299 302 301 301 300 299 298 297 298 302 301 301 304 304 300 298 296 295 296 297 298 298 297 296 296 296 296 296 296 295 294 293 293 292 292 292 292 292 291 291 291 291 291 291 290 290 289 289 289 289 289 289 289 289 289 289 290 290 290 290 290 290 290 290 290 289 289 289 289 290 290 290 290
299 299 298 297 295 294 294 294 293 294 295 296 297 299 297 295 300 300 295 293 293 297 302 301 299 301 300 299 299 297 297 297 295 296 297 297 297 296 296 296 295 296 295 294 294 293 293 292 292 292 292 291 291 291 291 291 290 291 290 290 288 288 288 288 288 289 289 289 289 289 289 289 289 289 289 289 289 289 289 289 289 289 289 289 289 289
296 300 299 296 296 295 293 294 294 292 293 298 299 297 293 293 297 298 297 298 298 298 301 298 298 300 300 301 301 297 299 300 296 295 295 296 297 296 296 296 295 295 295 294 294 293 293 293 292 292 292 292 291 291 291 291 291 290 290 290 289 289 288 288 288 288 288 288 288 288 288 288 288 288 289 289 289 289 289 289 289 289 289 289 288 289
293 300 301 296 297 296 293 294 297 295 293 294 295 293 293 296 298 298 297 300 300 298 300 300 297 297 298 302 306 302 300 300 298 296 294 294 296 296 296 296 295 295 294 294 294 294 293 293 293 292 292 292 291 291 291 291 291 290 290 290 290 290 289 289 289 288 288 288 288 288 288 288 288 288 288 288 288 288 288 288 289 288 288 288 288 288
292 298 302 298 295 294 295 298 300 300 296 294 295 294 295 297 297 297 295 295 298 298 298 300 302 303 301 301 306 307 303 299 298 297 295 294 296 296 297 297 296 295 294 294 294 294 294 294 293 293 292 292 292 291 291 291 291 290 290 290 290 290 290 290 289 289 288 288 288 288 287 287 287 287 288 288 287 288 288 288 288 288 288 288 288 288
292 295 300 300 296 295 297 299 298 298 298 298 298 297 298 295 292 293 293 291 295 299 297 297 302 307 302 298 303 309 305 300 297 297 295 295 296 296 297 297 297 296 295 295 295 294 294 294 294 293 293 292 292 292 292 291 291 291 290 290 290 290 290 290 290 289 289 289 288 288 287 287 287 287 287 287 287 288 288 288 288 288 288 288 287 288
293 294 297 299 301 302 298 295 295 296 295 297 297 296 296 294 293 297 297 292 291 294 296 295 298 303 300 297 302 306 302 297 295 295 295 295 297 297 297 298 298 296 295 295 295 295 294 294 294 294 293 293 292 292 292 291 291 291 290 290 290 290 290 290 290 290 289 289 289 288 288 287 287 287 287 287 287 287 287 287 288 287 287 287 287 287
293 294 296 297 300 300 295 291 292 293 293 295 295 294 294 294 296 299 298 296 292 289 292 293 296 303 300 294 295 298 296 295 296 296 295 297 299 299 299 299 298 297 296 295 295 295 294 294 294 293 293 293 293 292 292 292 291 291 291 290 290 290 290 290 290 290 290 289 289 289 288 288 287 287 287 287 287 287 287 287 287 286 286 286 286 286
293 295 297 299 300 298 294 291 290 290 291 295 294 293 294 294 296 296 295 296 294 292 294 294 297 305 302 291 291 294 294 295 296 296 296 298 300 300 299 299 298 297 296 296 296 295 295 294 294 293 293 293 293 292 292 292 291 291 291 290 290 290 290 290 290 290 290 289 289 289 289 288 288 288 288 288 287 287 286 286 286 286 285 285 285 285
294 296 297 300 304 304 301 299 297 294 294 296 296 293 294 293 293 294 293 293 295 295 296 298 301 307 302 293 292 293 293 294 296 296 297 298 299 300 299 298 298 297 296 296 296 295 295 295 294 294 294 293 293 293 292 292 292 292 291 291 290 290 290 290 290 290 290 289 289 289 289 289 288 288 288 288 287 286 286 285 285 285 285 285 285 285
293 295 297 300 304 305 306 306 303 299 295 295 295 293 293 293 293 294 294 294 297 295 293 296 301 302 300 298 297 295 295 296 297 298 298 298 299 299 298 298 298 297 297 296 296 295 295 295 294 294 294 294 294 293 293 293 293 293 292 291 291 291 290 290 290 290 290 289 289 289 289 289 288 288 288 288 287 286 286 285 285 285 285 285 285 285
293 293 294 298 302 302 303 301 297 295 294 294 294 293 293 293 292 293 295 296 296 294 293 296 297 297 297 297 297 297 297 297 296 296 297 297 298 299 298 298 298 297 297 297 296 296 295 295 295 295 294 294 294 294 294 294 293 293 292 291 291 291 290 290 290 290 290 289 289 289 289 288 288 288 288 288 288 287 286 286 285 285 285 285 285 285
293 293 293 294 296 296 296 296 293 292 293 293 293 293 293 293 292 292 294 295 294 294 296 296 294 294 296 296 296 296 296 295 293 293 295 296 296 297 297 297 297 297 297 297 297 296 296 295 295 295 295 294 294 294 294 294 293 293 293 292 291 290 290 290 290 290 290 289 289 289 289 288 288 288 288 288 288 287 287 286 286 286 285 285 285 285
292 295 293 291 293 293 292 292 292 291 291 291 291 291 291 292 292 292 293 292 292 294 297 297 294 294 295 295 296 295 294 294 293 293 294 294 294 294 294 295 296 297 297 297 296 295 295 295 295 295 295 294 294 294 294 294 293 293 293 292 291 290 290 290 290 290 289 289 289 289 289 288 288 288 288 288 288 288 287 287 287 286 286 286 286 286
292 295 293 290 291 293 292 291 290 290 290 290 290 290 290 290 291 291 291 292 292 293 294 294 294 294 294 294 294 294 293 293 293 293 293 293 294 294 293 294 294 295 295 295 295 295 295 295 295 295 295 295 295 295 294 294 294 293 293 292 291 290 290 290 290 290 289 289 289 289 289 288 288 288 288 288 288 288 287 287 287 286 286 286 287 287
291 295 293 291 293 294 291 290 290 290 290 290 290 291 291 290 290 290 290 291 291 292 292 292 292 292 292 293 293 293 293 293 292 293 294 295 295 294 294 294 294 295 295 295 295 295 295 295 295 295 295 295 295 295 295 295 294 294 293 292 291 291 290 290 290 289 289 289 289 289 289 288 288 288 288 288 288 288 288 287 287 286 286 287 287 287
291 293 293 292 295 296 291 289 291 291 290 292 294 295 294 292 291 291 290 290 291 292 291 291 291 292 292 293 293 293 293 292 292 293 294 295 295 295 294 294 295 295 295 295 295 295 295 295 295 295 295 295 295 295 294 294 294 294 293 292 291 291 290 290 290 290 289 289 289 289 289 289 288 288 288 288 288 288 287 287 287 287 287 287 287 286
290 293 294 293 296 297 291 289 291 292 294 300 301 299 299 296 292 291 291 290 291 291 292 293 294 294 293 293 294 294 293 292 293 293 294 294 294 294 294 294 295 295 295 295 295 295 295 295 294 294 294 294 294 294 294 294 294 293 292 291 291 291 290 290 290 290 290 290 290 289 289 289 288 288 288 288 288 288 287 287 287 287 287 287 286 286
289 292 293 291 295 297 292 290 292 294 300 304 299 295 297 297 295 294 293 291 291 291 292 294 295 294 293 293 294 294 293 294 294 294 294 294 293 294 294 294 295 295 295 295 295 294 294 294 294 294 294 294 294 294 294 293 293 293 292 291 291 291 290 290 290 290 290 290 290 289 289 289 288 288 288 288 288 288 287 287 287 287 287 286 286 286
290 291 291 290 292 294 292 293 298 303 304 300 295 293 294 294 294 295 294 293 292 291 292 293 293 294 293 293 293 294 294 294 294 294 296 297 295 294 295 295 295 296 296 296 296 295 295 295 295 294 294 294 293 293 293 293 292 292 291 291 291 291 290 290 290 290 290 290 290 290 289 289 289 288 288 288 288 288 287 287 287 287 287 286 286 286
290 291 292 291 291 293 294 296 303 305 300 296 296 295 294 293 293 293 295 297 295 293 292 292 293 293 293 293 294 295 294 293 293 295 298 299 297 297 296 296 296 296 296 296 296 296 296 296 295 295 295 294 293 293 293 293 292 292 291 291 291 291 291 290 290 290 290 290 290 290 290 289 289 289 288 288 288 288 287 287 287 287 286 286 286 285
290 291 292 292 292 293 294 295 297 298 297 299 299 295 293 295 294 294 298 300 297 294 293 293 293 293 292 293 296 296 293 292 293 295 298 299 298 298 297 297 297 297 296 296 296 296 296 296 295 295 295 295 294 294 294 293 293 292 292 292 292 291 291 291 290 290 290 290 290 290 290 289 289 289 288 288 288 288 288 287 287 286 286 286 285 285
288 290 292 293 293 293 293 293 295 298 301 303 298 293 292 294 293 293 296 298 297 296 295 294 294 293 292 293 296 295 293 293 294 296 298 298 298 298 298 297 297 297 296 296 296 296 295 295 295 295 295 294 294 294 294 294 293 293 292 292 292 292 291 291 291 290 290 290 290 290 290 290 289 289 289 288 288 288 287 287 287 286 286 285 284 284
288 289 291 293 293 292 292 294 296 298 301 300 296 292 292 293 293 294 297 300 300 299 297 294 293 293 293 294 295 294 294 296 297 297 298 298 298 298 297 297 297 297 296 296 296 296 295 295 295 295 294 294 294 294 294 293 293 293 292 292 292 292 291 291 291 291 290 290 290 290 290 289 289 289 289 288 288 288 287 287 286 286 285 284 283 283
288 290 290 291 292 292 292 293 294 295 297 297 295 293 292 293 294 297 299 303 302 300 298 297 295 295 297 297 295 294 295 297 297 297 298 298 298 297 297 297 296 296 296 296 296 296 295 295 295 295 294 294 294 294 294 293 293 292 292 292 292 292 291 291 291 291 291 290 290 290 290 289 289 289 289 288 288 288 287 287 286 286 285 284 283 283
288 289 290 291 291 292 293 294 294 294 296 296 295 293 292 293 296 299 301 302 301 299 299 298 297 298 299 298 296 295 296 297 297 297 298 297 297 297 297 297 297 296 296 296 296 296 295 295 295 295 294 294 294 294 294 293 293 292 292 292 292 292 292 292 291 291 291 290 290 290 289 289 289 289 289 288 288 287 287 287 286 285 284 283 283 283
291 289 290 290 291 291 292 293 293 294 296 295 294 293 293 294 298 299 299 299 299 299 298 298 298 298 298 297 297 297 297 297 297 297 297 297 297 297 297 297 297 297 297 297 297 296 296 295 295 295 294 294 294 294 294 294 293 293 292 292 292 292 292 292 291 291 290 290 289 289 289 289 289 289 288 288 288 287 287 286 285 284 284 283 283 282
296 295 292 290 291 292 292 291 294 297 297 294 293 293 293 296 300 299 298 298 299 298 298 297 297 297 297 297 296 296 296 296 296 296 297 297 297 297 297 298 297 297 297 297 297 297 296 296 295 295 295 294 294 294 294 294 294 293 293 292 292 292 292 292 291 290 290 290 289 289 289 289 289 289 288 288 287 287 286 285 284 284 284 282 281 280
296 298 297 292 292 295 294 292 294 297 296 294 296 297 296 296 299 298 298 298 298 298 298 297 297 297 297 296 296 296 296 296 296 296 297 297 297 297 297 297 297 297 297 297 297 297 296 296 296 296 295 295 295 294 295 294 294 294 293 293 293 293 292 291 291 290 290 290 289 289 289 289 289 288 288 287 286 285 284 284 284 284 282 281 279 279
297 298 299 297 296 296 297 295 295 296 295 295 297 298 297 297 298 298 297 297 297 297 297 296 296 297 297 296 296 296 296 296 296 297 296 297 297 297 297 297 297 297 297 297 297 297 296 296 296 295 295 295 295 295 295 294 294 294 294 294 293 292 292 291 291 290 290 290 290 290 289 289 288 288 287 286 285 284 284 284 283 282 280 279 278 278
297 297 297 298 297 296 297 297 297 297 297 297 296 297 297 297 297 297 297 296 296 297 297 296 297 297 297 297 296 296 296 296 296 297 297 297 297 297 297 297 297 297 297 297 297 296 296 296 296 295 295 295 295 295 295 294 294 294 293 293 292 292 291 291 291 291 290 290 290 289 289 288 287 286 285 285 284 284 284 283 281 280 279 278 278 278
297 297 296 296 297 298 298 298 297 297 298 298 298 298 297 297 297 297 297 297 297 297 297 297 297 297 297 297 296 296 297 297 296 297 297 297 297 297 297 297 297 297 297 296 296 296 296 296 295 295 295 295 295 295 295 294 294 294 293 293 292 292 291 291 291 290 290 290 289 288 287 287 286 285 285 285 285 283 282 280 279 278 278 278 277 277
297 297 297 297 297 297 298 297 297 298 298 298 298 298 298 298 298 298 298 298 298 298 298 298 298 298 297 297 297 297 297 297 297 297 297 297 297 297 297 297 297 297 296 296 296 296 296 295 295 295 295 295 295 294 294 294 294 293 293 292 292 291 291 291 290 290 289 289 288 287 286 285 285 285 285 284 283 281 280 279 278 278 278 277 277 277
298 298 297 297 297 297 297 297 297 297 298 297 298 298 298 298 298 298 298 298 298 298 298 298 298 298 297 297 297 297 297 297 297 297 297 297 297 297 296 297 296 296 296 296 296 296 295 295 295 294 294 294 294 294 294 294 293 293 292 292 292 291 291 290 290 289 288 287 286 285 285 285 285 284 283 282 280 279 279 278 278 277 277 278 277 277
298 298 298 298 298 298 298 298 298 298 298 298 298 298 299 298 298 298 298 298 298 298 298 298 298 298 297 297 297 297 297 297 297 297 297 296 296 296 296 296 296 296 296 296 295 295 295 295 294 294 294 294 294 294 293 293 292 292 292 292 291 291 290 290 289 288 287 286 286 285 285 285 284 282 281 280 279 278 278 278 277 277 277 277 277 277
298 299 298 298 299 299 299 299 299 298 298 298 298 298 298 298 298 298 298 298 298 298 298 297 297 297 297 297 297 297 297 297 297 297 297 296 296 296 296 296 296 296 296 295 295 295 295 294 294 294 294 294 293 293 293 292 292 292 291 291 291 290 289 289 288 287 286 285 285 285 284 283 281 280 279 278 278 278 277 277 278 278 277 277 276 276
Wind_Speed
11 8 7 4 4 6 6 4 2 2 2 3 2 2 1 1 2 2 3 4 1 3 6 5 6 6 7 9 11 15 17 19 19 17 18 18 19 19 20 21 22 23 24 25 26 27 26 25 23 22 19 17 16 16 16 15 15 16 16 15 15 16 13 10 9 8 7 7 7 7 6 6 6 5 4 4 6 6 5 4 3 4 4 6 8 11
11 11 5 4 5 6 5 5 2 2 3 3 3 2 2 1 2 2 2 4 2 3 3 2 5 6 6 6 9 13 14 16 18 16 15 16 17 17 18 21 22 22 24 27 29 29 29 28 26 25 22 20 18 18 18 18 19 19 18 18 18 18 15 13 14 13 11 10 9 9 9 10 8 7 6 6 8 10 8 6 5 5 5 6 6 6
9 9 5 6 6 4 3 4 2 5 5 4 3 2 1 2 1 1 2 3 3 3 1 2 5 5 4 5 8 11 11 12 15 15 14 13 14 16 17 18 19 22 25 27 29 29 29 28 28 27 27 26 24 25 24 23 23 22 21 21 20 20 18 17 16 14 14 13 10 8 8 9 9 10 11 11 12 13 11 8 8 8 8 7 7 7
6 5 7 6 6 3 3 7 6 5 5 4 4 2 1 2 1 1 1 2 3 2 1 0 3 2 3 3 6 8 9 10 13 14 14 13 12 13 15 15 17 21 24 26 27 28 28 28 28 28 28 27 27 28 28 27 26 25 24 23 22 22 22 20 19 17 14 13 10 8 8 7 8 11 12 11 12 13 12 11 10 11 12 10 9 9
4 3 8 6 6 4 3 7 8 5 3 2 2 2 2 3 2 3 1 2 3 2 1 2 1 1 2 3 3 4 6 7 10 13 14 14 12 12 14 15 16 19 22 24 25 26 26 27 27 27 27 26 27 28 28 28 27 26 26 25 24 24 23 22 21 19 15 12 11 8 6 5 4 4 3 4 9 13 14 14 13 14 14 13 12 12
3 4 7 6 6 6 4 5 5 3 1 3 1 2 4 4 4 3 3 3 2 2 2 1 1 3 2 2 3 3 2 3 6 9 10 13 15 13 13 15 17 18 20 22 23 24 24 25 25 25 25 25 26 27 26 26 25 25 25 24 24 24 24 24 22 20 17 14 12 10 8 8 6 6 6 9 13 16 17 17 16 16 16 14 13 12
2 7 7 4 4 6 6 4 1 2 3 2 2 3 3 3 1 1 3 2 1 1 2 3 1 3 3 2 2 3 3 0 4 3 4 9 14 13 12 14 16 17 19 21 21 22 23 23 23 24 24 24 25 24 23 23 23 23 23 23 23 24 24 24 23 22 20 19 18 17 16 16 16 16 18 19 18 19 19 18 17 17 16 16 15 14
2 8 8 6 6 7 6 3 1 2 4 1 3 2 1 3 2 2 3 2 1 2 3 3 2 1 2 2 3 2 3 2 1 1 2 6 10 11 12 12 14 16 18 20 21 22 22 22 22 23 23 23 22 22 21 21 22 22 22 21 21 22 23 23 23 22 22 21 21 21 21 21 21 21 22 21 20 20 19 18 18 17 17 17 17 17
1 4 6 5 7 6 2 5 4 2 2 3 3 2 2 2 3 3 4 2 1 2 3 5 3 1 3 3 2 0 2 4 3 3 3 3 5 7 9 10 12 14 15 18 20 21 21 21 21 21 21 21 20 20 20 20 20 20 20 20 19 20 21 22 21 21 21 21 21 21 21 21 22 21 20 20 20 20 19 20 20 19 19 19 19 19
2 2 2 1 3 3 4 7 4 3 2 4 2 2 2 3 4 3 4 1 2 3 1 5 3 2 3 4 1 1 2 4 4 4 3 2 2 3 5 7 9 11 13 16 18 19 20 21 20 19 19 19 19 19 19 19 19 18 19 18 18 19 20 20 20 20 20 20 20 20 20 20 20 20 19 18 18 19 19 20 21 21 21 20 20 20
3 3 3 2 1 4 6 6 3 2 3 3 1 4 3 3 4 3 2 2 3 3 3 4 1 2 1 4 2 2 3 3 3 3 3 4 3 3 2 3 5 7 10 13 14 16 17 18 19 19 19 19 19 18 18 18 18 18 18 18 18 19 19 19 18 18 18 19 19 19 19 19 20 19 18 18 19 20 20 21 22 22 22 22 22 21
5 2 1 2 2 6 4 2 3 3 3 2 2 4 2 4 4 3 4 4 4 2 4 3 2 1 1 4 4 5 5 5 5 4 5 6 6 4 3 2 2 4 7 9 11 12 13 15 16 18 19 20 19 19 19 19 18 18 17 17 17 17 18 18 18 17 17 18 18 19 19 19 19 19 19 19 20 21 21 22 22 22 23 23 23 23
3 2 4 3 1 7 5 1 4 5 5 5 3 5 3 3 4 3 4 3 0 4 3 1 3 0 3 5 5 7 8 8 9 9 8 8 6 5 4 3 2 2 3 5 7 9 11 12 13 16 18 19 20 20 20 19 19 18 17 17 16 17 17 17 17 17 17 17 18 18 18 18 19 18 19 20 20 21 22 22 22 23 24 24 24 25
3 3 6 3 0 9 8 3 3 4 5 5 2 3 2 1 4 3 3 2 3 5 4 3 3 1 3 4 5 8 11 14 13 10 9 8 6 5 5 4 4 3 2 3 4 5 7 9 11 13 14 17 18 19 20 20 20 19 18 17 17 16 16 16 16 16 17 18 18 18 18 18 18 19 20 20 21 21 21 21 22 23 23 24 25 25
2 4 6 4 3 9 8 3 1 0 3 3 2 3 1 3 2 2 3 1 4 5 5 4 1 2 2 2 4 7 10 14 13 10 10 9 7 6 7 7 7 6 4 3 3 3 4 6 8 10 11 13 15 16 18 19 19 19 18 17 16 16 16 16 16 16 16 17 17 17 18 18 18 19 19 20 21 21 21 21 21 22 23 23 24 24
1 5 5 3 2 2 4 3 1 3 2 2 1 3 1 3 3 1 3 4 2 2 4 3 2 4 3 3 4 3 5 9 12 12 12 12 10 9 10 10 9 8 7 5 4 3 4 5 6 7 8 10 12 14 16 17 17 18 18 17 15 15 16 15 16 16 17 17 17 17 17 18 18 18 18 19 20 20 21 21 21 22 22 22 23 23
2 4 4 4 1 1 3 4 0 2 1 1 2 1 1 2 4 3 1 1 2 0 3 2 3 4 3 4 3 1 2 6 9 12 15 15 14 13 13 12 10 9 8 7 6 4 5 5 6 7 7 8 10 12 14 15 16 16 17 17 15 15 15 16 16 16 16 16 16 17 17 17 17 18 18 19 19 20 20 20 21 22 22 22 23 23
1 4 4 2 1 1 4 3 1 2 1 1 2 1 1 2 4 3 0 3 4 0 4 2 3 5 2 3 3 1 4 7 7 11 15 17 17 17 17 14 11 10 9 8 7 6 5 6 6 7 7 8 9 10 12 14 15 15 15 16 15 15 15 16 16 16 16 16 16 17 17 17 17 17 18 18 19 19 19 20 20 21 22 23 23 24
0 3 5 0 2 5 7 1 2 2 3 4 2 3 2 2 2 3 2 2 3 2 5 4 4 4 3 3 3 4 9 10 8 9 11 15 20 22 22 17 14 12 11 10 8 6 6 6 7 7 8 8 9 10 11 13 14 14 14 14 15 15 15 16 16 16 16 16 16 16 16 17 17 17 17 18 19 19 19 20 20 21 22 22 23 24
1 0 3 2 1 5 5 2 1 3 4 4 3 1 2 3 2 1 2 1 0 1 3 5 5 3 5 5 5 8 10 10 9 7 10 18 24 25 24 20 17 15 14 11 9 7 7 7 7 8 9 10 10 10 11 12 13 14 13 13 13 14 15 16 16 16 16 16 16 16 16 16 16 17 17 18 18 19 19 20 20 21 21 22 23 24
1 1 3 4 4 2 2 1 2 2 1 2 2 3 3 2 1 0 2 1 2 1 0 2 5 6 5 4 6 8 8 9 10 9 13 22 27 27 26 23 19 18 16 13 10 9 9 8 9 9 10 11 11 11 11 12 13 13 13 12 12 13 15 16 17 18 18 17 17 17 17 17 17 17 17 17 17 18 19 19 20 20 21 22 23 23
1 2 2 4 5 2 2 2 1 2 2 1 0 0 0 1 2 2 3 3 1 2 2 2 4 8 6 3 5 7 6 8 12 14 16 23 27 27 26 23 20 19 18 15 13 12 11 11 11 11 11 12 12 12 12 12 12 13 13 13 12 13 14 15 17 19 20 20 19 18 18 18 18 18 18 17 17 17 17 17 18 19 20 21 22 23
3 2 1 4 5 3 2 1 1 1 2 2 1 1 2 2 3 4 2 3 1 1 1 2 2 8 5 3 5 7 7 8 11 13 17 21 23 22 22 21 20 20 19 17 15 15 14 13 13 13 14 14 14 13 12 12 13 14 14 14 13 13 14 15 17 18 21 22 21 20 19 19 18 18 17 17 16 16 16 16 17 17 19 20 21 22
2 2 0 4 5 3 3 2 1 1 1 1 1 1 3 1 2 3 3 2 1 2 2 2 3 7 5 3 5 7 8 9 10 11 16 19 20 19 19 19 20 21 20 18 18 18 17 17 17 17 17 17 16 14 13 13 13 14 15 16 15 14 14 15 17 18 21 22 21 20 19 19 18 17 17 16 16 16 16 16 17 18 19 20 20 22
2 0 1 2 6 6 5 5 4 4 1 2 2 1 2 3 5 3 2 2 1 4 5 4 4 7 4 2 3 4 5 8 11 11 13 17 19 19 19 19 20 21 21 20 21 20 20 20 20 19 19 19 18 16 15 14 15 15 17 18 18 16 16 16 17 18 20 21 21 19 18 17 17 17 17 17 16 16 16 17 18 20 21 22 23 24
2 1 2 2 1 3 4 4 4 3 2 2 2 2 3 4 6 3 1 2 2 4 5 5 6 7 5 4 5 5 4 6 11 12 12 16 19 20 20 21 21 21 22 22 22 22 22 21 22 21 21 21 21 20 18 17 17 17 18 19 19 17 16 16 17 18 19 21 21 19 18 17 17 17 17 18 18 18 18 19 20 22 24 25 27 28
1 1 2 4 5 5 6 6 2 1 3 5 5 4 5 5 5 4 3 3 4 3 3 8 9 11 15 10 5 7 6 5 11 14 16 18 20 21 22 23 23 23 23 23 23 24 24 24 25 24 24 24 23 22 21 21 20 20 19 20 19 17 17 17 18 19 20 22 22 20 19 18 18 18 19 19 20 20 20 21 23 24 26 27 29 31
3 2 4 5 8 8 8 8 5 3 6 9 10 8 7 7 7 7 6 6 4 4 5 9 7 9 17 12 7 9 8 6 12 17 19 21 22 23 24 25 26 26 25 25 26 27 28 28 28 28 27 27 25 25 25 24 23 22 21 21 19 18 17 18 19 21 22 23 23 22 20 20 20 20 21 21 22 22 23 24 25 26 27 29 31 32
3 3 4 3 6 9 9 10 9 7 8 9 11 12 10 8 10 13 14 10 7 6 10 7 3 8 16 15 12 13 10 10 18 23 23 25 26 26 26 26 27 27 27 28 29 29 29 29 28 28 28 26 25 26 27 26 25 24 23 22 20 18 17 18 20 21 22 23 24 23 22 21 22 22 22 23 24 24 25 26 27 28 29 30 32 33
3 2 2 1 5 9 8 9 8 6 7 8 12 15 13 12 14 16 16 12 11 15 17 13 12 15 19 18 18 23 23 20 25 29 27 27 27 27 27 26 27 27 27 27 27 25 25 24 24 25 24 24 24 25 27 27 27 26 25 24 22 19 17 18 20 21 22 24 25 23 22 22 23 24 24 24 25 26 27 28 28 29 30 31 33 34
2 2 0 2 4 8 5 5 5 4 7 10 15 17 15 14 15 15 14 12 12 15 18 17 15 16 23 23 20 25 29 22 22 26 26 25 25 24 25 25 25 24 23 23 23 22 22 23 23 23 23 23 24 24 25 26 27 27 26 25 23 21 18 18 20 21 22 24 25 23 23 23 24 25 25 26 26 27 28 29 30 31 31 32 34 35
3 2 2 5 3 6 3 5 8 8 9 12 19 21 16 12 10 10 10 11 13 14 12 10 8 11 18 17 13 17 20 16 18 23 23 23 23 23 24 25 23 22 22 23 24 24 24 24 23 23 23 24 24 24 24 25 25 26 26 25 24 21 19 20 21 22 23 25 25 24 24 24 25 25 26 27 27 28 28 30 31 32 33 34 35 36
3 2 1 2 3 6 4 5 8 9 10 10 11 11 8 8 8 7 5 9 15 13 7 6 9 10 10 9 7 10 13 13 17 20 22 23 23 23 25 25 25 25 24 25 25 25 24 23 22 22 22 23 23 23 22 23 24 25 25 24 23 21 21 22 22 22 24 25 25 25 25 25 26 26 27 27 28 28 29 31 32 33 34 35 36 37
4 4 2 2 1 5 6 7 7 7 7 6 3 2 3 5 8 9 7 9 14 12 7 7 9 9 9 10 9 12 17 19 21 23 24 26 25 25 26 26 25 24 22 21 21 21 20 19 18 18 19 20 20 20 20 21 23 23 23 23 23 22 23 24 24 24 25 26 25 26 26 26 26 27 27 28 28 29 30 32 33 34 35 36 37 38
4 4 2 2 2 3 5 6 5 6 6 5 9 7 7 7 8 9 10 10 13 15 13 12 13 14 17 20 21 23 26 26 25 26 25 24 25 25 25 24 20 17 17 17 17 17 17 17 17 17 17 17 17 17 18 20 21 21 21 22 23 23 24 25 25 26 27 26 26 26 27 26 26 27 27 28 29 30 32 34 35 36 36 37 38 40
5 4 2 1 2 2 2 2 3 7 7 12 17 10 3 3 3 2 9 12 10 14 14 14 16 21 25 27 28 28 25 20 20 23 20 20 22 23 23 21 16 14 14 16 16 16 16 16 17 17 17 17 17 17 18 19 20 21 22 23 24 25 25 26 28 28 29 28 27 27 27 26 26 26 27 28 29 31 33 36 36 37 37 38 40 41
7 5 2 2 2 2 2 3 5 10 12 11 9 2 3 2 4 5 4 9 7 13 15 13 14 20 24 26 28 25 17 10 11 16 17 18 20 23 25 23 20 18 17 17 18 18 17 17 17 17 17 18 18 18 20 20 21 23 24 25 25 26 26 28 29 31 31 30 29 28 28 27 27 27 27 28 31 33 35 37 37 38 38 40 41 41
6 4 3 3 2 2 1 3 4 7 8 4 3 3 0 3 7 7 2 9 8 13 20 17 12 17 20 22 22 15 8 4 4 9 17 20 21 24 27 27 26 25 24 22 22 21 20 20 20 19 19 19 20 21 22 22 23 25 26 27 27 28 28 30 31 32 32 32 31 29 28 27 28 28 29 30 32 35 37 38 38 39 39 40 41 42
2 2 3 3 2 2 1 3 2 4 7 4 2 2 4 7 6 3 4 9 9 8 15 18 16 18 19 19 16 7 2 4 4 9 19 25 25 27 28 28 29 30 29 28 27 26 25 25 24 23 22 23 23 24 24 25 26 28 29 29 29 30 31 32 33 33 33 34 32 30 28 28 29 29 30 31 33 35 37 38 39 39 39 40 42 43
2 1 3 4 5 5 3 3 3 6 9 7 3 5 7 7 4 5 5 8 6 3 7 16 18 17 17 17 13 5 3 7 10 16 26 28 28 29 30 30 31 31 31 31 30 30 30 29 28 28 28 28 28 27 26 27 29 31 32 32 31 32 33 34 33 33 34 35 34 32 30 29 30 31 31 33 34 36 38 39 39 40 40 41 43 46
2 2 4 5 6 7 7 5 4 6 10 14 11 11 12 6 5 2 4 7 4 2 5 11 12 12 13 15 12 9 12 20 25 30 33 31 30 32 32 32 33 32 32 32 30 31 32 32 32 32 32 31 31 30 29 29 31 33 34 34 34 35 34 33 33 33 35 36 36 34 32 31 32 32 33 34 35 37 38 39 40 40 41 43 46 48
2 1 3 5 4 5 5 3 3 7 13 16 15 17 15 5 1 5 7 4 4 6 7 8 11 14 16 18 19 22 27 32 33 34 34 34 35 35 34 33 33 32 31 30 30 30 31 32 32 33 33 32 31 32 31 31 32 33 33 34 35 34 32 31 32 34 36 37 37 35 33 33 33 34 34 35 36 37 39 39 39 41 42 45 48 49
5 2 3 5 5 4 3 2 3 7 6 7 13 12 11 9 8 9 9 10 13 14 15 17 20 22 24 26 28 31 34 35 35 36 37 38 37 36 35 34 33 32 31 30 29 29 30 32 32 32 32 31 31 32 31 31 33 32 31 33 32 30 30 30 31 33 34 35 35 34 34 34 34 35 35 35 36 37 38 38 39 42 45 46 47 48
5 4 3 3 5 5 4 6 6 7 6 17 18 8 11 19 22 22 21 22 24 24 25 27 28 30 33 33 34 35 36 36 38 39 39 39 38 37 37 36 34 34 33 31 30 29 29 32 32 31 30 30 30 31 30 30 32 32 31 31 29 28 29 30 31 32 32 33 33 34 34 35 36 36 35 35 35 36 37 39 42 45 46 45 46 48
9 12 8 6 6 8 9 10 10 12 15 20 22 18 18 24 30 30 29 30 31 32 34 34 36 39 40 39 38 37 37 38 40 40 40 40 39 38 38 37 36 36 35 33 32 30 30 31 31 31 31 30 29 29 29 29 31 32 31 30 27 27 29 30 30 31 32 32 33 34 35 36 36 35 34 34 34 36 39 42 44 45 45 45 46 47
14 18 12 5 4 8 16 19 21 27 33 32 32 31 31 34 37 36 35 35 36 38 40 39 41 43 42 41 39 38 39 41 41 41 41 40 40 40 39 39 38 37 36 35 33 31 30 31 31 32 32 30 28 28 28 28 29 30 30 28 27 28 29 29 31 31 32 33 34 34 35 35 34 33 33 33 35 39 42 43 44 44 45 46 46 47
16 22 16 8 6 7 9 11 18 31 38 35 34 35 34 36 38 36 37 39 41 43 43 42 43 44 42 41 41 40 42 43 41 41 41 41 41 41 40 40 39 38 37 36 34 32 32 32 32 33 32 31 29 27 27 28 28 29 29 28 28 29 29 30 31 32 32 33 34 33 33 32 31 32 33 35 39 41 42 42 42 43 45 46 46 47
11 15 12 12 14 13 10 12 24 38 37 31 33 37 36 38 40 39 39 42 43 43 42 41 41 42 41 41 41 42 43 43 41 42 42 41 41 42 41 41 41 39 38 36 35 34 33 34 34 33 33 32 30 28 27 28 27 28 28 28 29 29 30 31 31 32 32 32 32 31 30 30 31 34 36 39 40 41 41 42 42 43 45 45 46 46
10 11 10 10 12 10 11 20 32 34 29 29 36 40 38 38 39 37 36 37 37 38 40 39 39 40 41 41 41 42 42 42 42 42 42 42 42 42 42 42 41 40 39 38 36 34 34 34 34 33 33 32 29 28 28 28 27 27 27 28 29 29 30 31 31 31 30 30 29 29 29 31 34 36 38 40 40 41 42 42 43 44 45 45 44 44
12 14 12 10 11 9 10 20 25 18 14 21 29 30 30 30 31 32 33 34 37 40 41 41 42 42 42 42 42 42 42 43 43 43 42 43 43 43 43 43 42 41 40 38 36 36 34 34 33 33 32 31 28 28 28 27 27 27 27 28 29 29 29 30 29 29 28 28 28 29 31 33 36 37 38 39 40 42 43 43 43 43 44 44 43 42
24 26 20 11 11 16 22 30 32 24 21 28 31 29 31 32 33 36 39 40 41 43 42 42 44 44 43 44 43 42 43 44 44 44 44 44 44 44 44 43 41 41 39 37 36 36 35 33 32 32 31 30 28 28 28 27 27 27 27 28 28 28 28 28 27 27 27 27 28 31 33 35 37 37 38 39 40 42 44 44 44 43 41 41 42 43
Wind_Direction
39 62 45 22 332 321 323 333 286 211 163 157 135 80 285 270 2 321 312 324 282 85 45 52 68 51 40 33 24 19 18 23 21 24 32 28 25 26 27 31 35 39 41 44 51 57 62 66 69 70 69 66 63 58 54 50 50 52 51 45 42 43 38 27 32 43 48 47 48 51 56 65 70 75 72 60 61 58 48 39 14 346 329 302 282 269
47 61 30 333 301 291 300 305 263 121 84 88 109 70 11 24 30 325 297 332 356 91 38 32 66 48 43 47 34 28 25 22 16 14 21 26 26 26 27 32 36 41 46 51 55 58 61 62 64 68 69 69 68 64 60 58 59 60 59 56 55 53 45 34 29 27 30 38 39 40 49 53 53 65 74 75 73 67 63 59 46 36 18 359 342 314
46 50 353 320 317 306 325 341 59 83 69 62 46 60 32 10 19 286 275 330 11 79 62 36 66 47 29 56 52 43 37 23 15 15 19 22 26 28 27 27 33 41 47 50 54 58 60 60 61 62 64 65 66 66 65 63 63 61 61 61 62 62 58 53 47 38 33 37 43 44 53 56 50 54 59 66 75 75 72 65 58 59 49 32 20 9
50 19 336 328 347 25 31 18 45 57 49 58 50 71 270 311 331 249 270 358 18 76 173 285 72 56 5 38 65 64 57 31 14 18 28 30 29 31 33 28 28 38 45 48 52 56 59 60 60 59 58 59 61 62 62 61 61 61 61 61 63 65 65 64 60 55 49 48 51 52 56 58 57 61 59 57 63 68 70 67 64 64 62 57 49 43
85 329 334 344 16 57 73 31 40 48 21 352 60 108 241 290 303 292 328 20 10 22 329 275 247 319 346 357 28 57 68 49 17 12 22 33 41 41 39 38 38 41 45 48 52 55 57 58 59 59 58 56 56 58 58 57 58 58 60 61 62 63 65 67 68 68 67 69 74 80 85 83 86 93 83 29 33 43 49 51 52 53 57 59 58 57
68 346 359 6 8 28 61 46 37 60 26 317 298 195 236 247 277 318 22 11 348 354 352 13 256 277 304 335 349 360 28 73 38 12 6 23 44 47 33 36 47 49 49 51 54 57 58 57 58 59 58 56 55 56 56 57 57 57 58 59 60 62 63 65 67 69 71 73 76 86 94 88 80 72 53 32 29 34 37 37 37 38 42 46 49 52
356 357 26 40 7 21 38 40 30 121 94 356 302 256 232 197 230 360 62 22 310 260 322 33 123 256 296 318 307 329 318 113 71 30 351 18 38 48 39 39 48 51 54 56 57 59 58 57 56 56 55 55 55 55 56 57 58 57 56 55 57 59 60 61 61 62 63 64 63 64 67 65 60 57 54 48 40 37 37 35 32 31 31 31 33 35
334 355 12 26 23 31 30 352 285 129 106 323 313 341 142 139 140 141 108 94 251 268 318 13 75 228 295 273 247 295 319 295 45 324 326 16 30 43 48 52 54 53 55 57 57 57 56 55 54 53 53 53 54 53 53 53 54 56 55 54 54 55 57 58 58 58 58 59 59 59 61 60 59 58 57 54 49 44 41 38 35 31 28 27 26 27
303 353 354 14 19 20 348 292 282 150 123 269 287 30 109 127 121 118 97 97 360 27 336 333 21 53 282 275 248 26 332 298 275 264 298 350 11 29 43 56 59 58 59 59 57 55 54 53 52 52 52 52 52 51 49 50 50 52 54 54 54 55 55 55 56 57 58 59 60 60 60 61 61 60 58 56 54 50 46 43 41 37 32 29 26 24
256 281 285 82 52 349 278 282 278 170 246 274 256 57 62 56 52 61 67 83 32 52 306 303 7 82 283 285 291 324 268 266 258 244 252 278 315 353 21 46 59 61 61 60 58 55 53 52 51 50 51 50 49 48 47 48 47 48 49 50 51 54 54 53 53 53 55 57 58 59 58 59 60 58 56 53 51 48 44 43 42 40 37 35 31 28
300 280 242 150 124 293 276 284 296 228 273 277 66 37 22 15 30 42 34 66 49 8 262 271 335 92 323 282 241 232 228 213 232 255 240 232 241 264 321 20 50 58 60 57 55 54 52 52 51 50 50 49 48 47 46 45 44 44 45 46 48 51 53 53 52 52 52 52 52 53 53 53 53 50 47 45 43 41 38 36 37 36 36 36 34 32
339 356 287 251 278 326 310 282 324 326 9 63 78 48 16 324 3 19 352 34 62 298 256 263 304 133 189 265 231 222 231 201 202 232 233 229 234 241 269 310 7 41 50 50 48 48 47 47 47 48 47 47 47 46 45 44 42 42 42 43 45 49 50 50 51 51 52 52 51 50 50 49 48 45 41 40 39 37 34 33 33 32 32 32 32 31
335 229 316 295 246 358 6 68 337 338 29 43 48 57 42 333 4 8 335 9 79 255 252 348 349 251 223 246 218 212 229 220 213 221 226 227 227 232 249 259 278 352 29 34 38 38 38 38 38 40 42 42 43 43 42 41 40 39 39 39 41 45 47 47 47 48 48 50 50 49 47 46 45 43 41 41 39 37 34 33 31 30 30 28 28 27
338 278 344 15 283 2 22 64 354 326 6 22 74 87 67 52 32 330 296 327 288 274 289 348 7 313 281 262 211 204 218 219 221 225 226 229 228 230 237 241 252 268 301 345 15 25 28 31 30 32 34 35 37 38 37 36 34 34 35 35 37 41 44 44 45 45 45 46 46 46 45 44 42 40 39 40 40 38 35 33 30 29 29 27 27 26
12 297 341 31 333 356 23 52 28 233 354 354 158 125 116 145 118 270 245 241 283 289 301 326 360 211 253 272 228 221 218 212 214 218 220 227 230 231 242 244 247 254 262 282 313 347 6 18 21 22 25 27 30 30 29 29 29 29 30 31 33 35 38 40 41 42 43 43 43 42 42 41 40 39 37 37 36 36 34 33 31 29 28 27 26 25
59 267 284 348 309 1 23 334 64 109 2 322 151 80 47 171 147 161 188 188 212 304 305 295 242 223 226 265 265 244 219 203 203 209 212 223 228 229 243 249 249 253 257 263 279 309 332 348 359 6 11 15 20 21 21 22 24 26 28 29 29 30 32 34 35 36 37 38 39 39 38 37 36 36 35 34 33 31 30 29 28 28 27 26 25 23
360 276 285 350 306 121 17 312 258 104 292 354 51 35 242 168 125 112 191 211 111 37 291 277 271 288 311 301 285 135 208 219 209 208 211 219 225 229 241 249 249 250 251 257 269 287 309 324 336 343 351 359 7 10 11 14 17 20 25 29 30 28 27 29 30 31 31 32 32 33 34 33 32 32 31 31 30 28 27 25 24 24 23 22 21 19
341 281 295 24 183 293 345 291 223 79 109 43 21 216 192 72 78 96 345 346 42 16 288 311 280 292 330 317 308 176 227 243 229 217 218 221 223 227 236 241 243 246 246 250 258 267 283 303 317 325 332 340 349 355 360 5 8 12 17 23 27 27 25 24 23 23 24 24 25 26 27 27 27 28 28 27 27 24 22 20 19 19 17 17 16 15
102 298 302 64 194 312 346 354 240 351 53 82 123 160 113 67 14 24 48 3 16 332 298 307 297 271 216 223 260 221 222 230 227 220 222 225 223 225 231 234 235 239 241 240 245 255 268 287 303 312 319 323 330 340 347 353 358 2 6 11 18 21 22 21 18 15 14 14 17 19 20 20 20 21 23 22 22 20 18 17 16 14 13 12 10 9
147 16 293 288 267 307 346 50 204 319 12 63 94 45 34 116 147 3 42 78 268 299 302 318 328 286 228 213 203 212 221 220 215 212 220 226 225 226 231 234 234 235 238 239 241 253 265 277 291 300 309 313 316 323 332 342 347 351 354 357 4 9 13 17 15 10 7 5 7 9 11 12 13 14 15 15 14 13 11 11 11 11 10 9 6 5
101 112 252 293 338 324 318 18 160 190 325 7 23 1 354 52 113 73 19 69 126 144 231 326 316 277 243 201 190 212 223 213 207 208 219 226 228 230 234 236 238 237 238 240 241 251 262 270 279 288 294 298 303 310 317 327 334 339 341 344 351 356 360 5 8 7 2 358 357 359 1 2 4 6 7 7 6 5 4 3 3 4 4 3 2 1
137 137 223 297 332 308 245 254 191 186 187 175 225 219 154 45 84 75 332 326 83 129 171 158 292 277 259 196 198 216 221 218 216 213 221 229 232 234 238 240 241 240 242 244 247 253 260 267 274 279 283 287 292 298 304 312 321 328 330 331 336 341 346 351 356 358 357 354 350 349 352 354 356 356 356 356 356 356 357 356 356 357 357 357 357 356
149 113 166 270 273 256 265 326 82 187 167 151 211 209 127 115 109 112 268 273 107 95 154 120 266 273 263 206 217 239 244 246 238 226 230 238 240 240 242 241 240 241 244 247 251 256 261 267 271 272 276 281 285 288 296 303 311 318 320 321 323 326 332 338 344 348 350 349 346 343 343 344 345 346 345 345 346 346 348 348 348 350 350 351 352 351
138 84 75 278 288 313 341 7 61 45 93 149 252 145 139 155 120 139 180 194 171 195 154 97 267 269 275 247 241 260 266 266 261 246 242 245 245 243 241 239 238 241 245 249 253 258 261 264 266 267 272 278 280 281 285 293 301 309 312 312 312 316 322 327 333 339 340 341 340 337 335 333 333 334 335 337 339 340 340 340 341 342 343 344 345 346
199 92 78 356 337 339 348 354 346 345 360 215 242 208 171 112 94 114 143 88 285 220 159 145 247 257 272 315 293 284 287 279 267 257 254 251 247 243 241 242 242 244 248 252 255 259 262 264 267 271 276 279 280 281 283 290 298 307 311 311 309 310 315 320 323 326 328 330 331 329 327 325 324 325 328 331 334 335 334 334 334 336 338 340 342 344
209 242 125 92 12 299 302 303 296 307 296 244 225 212 213 148 135 162 111 100 246 232 158 176 237 260 274 305 315 303 308 294 277 268 263 258 253 249 247 248 249 250 253 257 259 262 264 266 270 274 278 281 283 284 286 289 294 302 308 309 306 303 305 308 309 310 313 317 320 321 321 320 320 323 326 329 330 330 329 329 331 334 337 339 340 342
97 294 239 195 203 229 254 259 264 5 301 273 261 227 208 189 165 136 104 172 205 179 196 228 241 274 282 277 278 282 282 281 275 274 272 266 261 259 256 257 257 257 260 263 266 267 268 270 273 275 279 281 282 281 281 283 286 291 299 302 299 294 293 295 297 298 302 307 311 314 317 318 318 321 325 326 327 327 327 328 329 332 335 336 337 338
86 304 253 219 234 254 270 279 294 309 267 265 270 255 217 194 173 165 198 210 152 122 250 243 213 250 274 277 269 269 272 273 274 277 280 280 277 274 270 267 264 263 265 267 269 271 273 274 275 277 279 280 279 277 276 277 278 281 290 297 295 287 285 289 291 292 296 302 307 311 314 315 315 317 321 322 323 324 325 326 327 329 331 333 334 334
120 257 244 204 258 268 272 278 280 273 261 258 262 261 246 215 194 202 221 211 161 205 248 251 210 247 271 283 283 277 278 280 281 284 286 286 284 280 277 273 268 266 267 268 270 273 275 277 278 279 279 278 275 274 273 273 275 277 284 293 293 286 284 287 287 289 295 300 305 310 313 312 311 314 316 317 319 321 321 322 324 325 327 330 331 331
144 243 235 176 286 278 266 270 271 268 272 270 261 255 245 231 219 219 227 217 207 235 252 262 273 275 274 275 279 284 287 285 283 286 287 284 283 281 278 276 274 273 272 272 275 278 279 281 282 281 279 276 274 275 274 274 276 277 281 289 291 286 284 286 285 286 292 298 304 308 309 308 308 310 312 313 315 317 318 318 319 320 323 326 327 327
156 254 233 92 306 290 289 305 299 273 270 274 273 264 246 234 232 229 230 224 222 243 254 259 269 274 270 271 277 282 283 282 278 278 281 284 288 287 281 279 279 280 282 282 283 285 286 286 285 282 280 278 278 278 277 276 277 277 279 285 288 287 287 285 283 284 290 298 304 306 305 306 306 306 308 310 312 314 315 314 314 316 319 321 323 323
154 258 13 60 329 287 311 340 315 299 288 276 274 270 251 225 223 224 217 206 209 226 241 252 255 254 264 276 285 279 276 272 267 271 279 286 291 291 285 284 284 284 286 288 288 289 291 289 285 282 278 277 278 279 277 276 275 274 275 282 287 287 286 283 282 284 291 300 304 305 305 305 304 304 305 307 309 310 311 310 310 313 315 317 318 317
147 148 55 66 298 277 291 320 315 318 310 282 265 264 240 204 208 223 214 197 205 213 210 217 233 243 264 286 291 282 281 273 269 277 285 288 290 291 287 285 286 287 290 292 291 292 292 290 286 282 279 277 276 277 275 272 270 269 272 281 285 283 282 282 282 285 291 299 303 305 305 304 302 302 303 305 307 306 306 306 307 310 312 313 312 311
141 126 131 166 234 275 290 317 325 308 289 276 260 216 181 183 199 216 223 201 199 206 213 233 251 264 276 274 265 270 277 279 284 290 294 293 290 288 287 286 287 291 296 299 298 296 294 292 289 284 280 278 276 275 273 269 267 268 271 278 282 280 279 281 281 283 289 295 300 303 305 303 301 301 302 303 304 303 301 303 305 307 308 307 306 305
140 131 145 174 187 265 305 349 331 264 235 280 302 278 227 205 196 219 251 237 207 211 229 248 261 262 262 264 266 269 273 280 289 294 300 305 299 292 291 289 287 290 300 305 303 300 297 295 294 291 287 284 280 277 274 272 272 272 274 279 282 281 280 280 279 281 285 290 296 301 302 303 302 301 301 302 301 299 298 301 303 304 303 302 301 301
141 144 165 170 171 262 340 50 265 272 288 298 298 293 221 198 173 209 279 268 218 207 222 236 248 254 258 263 269 275 280 287 292 293 302 318 317 311 306 297 287 288 299 306 305 303 304 302 300 300 297 292 288 283 280 280 280 279 279 282 283 282 281 280 279 280 283 287 293 298 300 302 301 299 299 300 298 296 296 299 300 299 299 297 297 299
147 147 176 200 206 243 245 214 257 301 315 305 294 308 98 151 164 139 287 281 219 196 209 218 238 251 255 261 270 279 287 297 298 294 302 317 321 322 319 311 303 297 295 301 303 301 304 305 303 305 303 298 294 289 287 287 285 282 282 282 283 283 282 280 280 281 282 286 291 296 298 300 300 299 298 297 296 295 296 297 296 296 295 295 295 298
168 168 178 202 214 135 202 277 298 306 298 282 248 260 155 156 169 146 349 303 268 218 210 207 226 245 247 258 270 278 290 314 298 285 299 312 316 316 316 313 310 304 299 298 298 297 299 301 301 303 301 297 295 293 292 291 287 284 284 284 285 285 283 281 281 282 283 285 290 294 295 295 297 299 299 298 297 297 296 295 294 293 293 293 295 298
177 237 195 211 245 134 154 256 248 267 272 258 192 210 147 144 161 116 355 302 287 249 213 204 218 237 242 252 259 254 296 309 277 279 299 310 312 309 309 309 309 308 304 301 299 298 300 301 298 296 294 294 297 300 299 294 289 285 284 284 285 284 282 281 282 284 285 287 290 291 290 291 294 297 298 299 299 298 296 294 293 292 292 293 296 300
117 193 197 210 229 217 206 223 229 253 258 245 203 161 147 141 114 50 341 271 266 293 216 203 217 238 248 254 247 204 225 275 283 297 304 307 307 305 305 304 305 306 304 303 302 300 300 300 296 293 293 294 298 303 302 296 289 284 283 284 285 283 282 283 285 288 288 287 287 288 287 289 292 294 297 299 299 298 296 294 292 292 292 295 298 301
156 202 213 212 220 221 222 241 263 261 256 255 237 183 150 108 70 95 250 248 236 291 239 212 228 257 265 259 248 240 268 282 291 299 303 304 303 303 305 306 305 304 304 303 303 300 299 298 295 294 294 295 297 300 301 296 290 285 284 284 283 282 284 287 289 288 286 285 285 285 285 287 289 293 296 298 299 298 296 294 292 292 294 297 299 300
177 174 208 210 216 213 217 248 283 276 274 265 233 190 167 131 41 210 215 233 251 274 276 258 270 287 284 274 272 277 285 292 295 298 301 303 302 303 307 308 307 306 306 304 304 303 300 299 297 295 293 294 294 296 298 296 291 288 286 284 282 284 288 290 288 286 283 283 283 283 284 285 287 291 294 296 297 297 295 292 291 292 295 298 299 300
175 182 208 202 201 198 204 217 243 272 268 160 144 152 169 190 233 249 255 274 279 282 288 286 286 292 291 286 285 288 291 294 296 298 301 302 303 304 306 307 307 307 307 305 303 303 302 301 299 297 295 295 294 295 297 295 292 290 289 285 284 288 291 290 287 285 283 283 284 284 284 285 287 290 292 293 293 292 291 291 293 295 297 298 300 303
165 184 207 195 183 179 188 189 204 251 213 162 160 185 218 226 251 269 272 278 283 284 286 287 289 292 292 290 290 291 291 293 295 298 300 301 303 305 305 306 307 306 307 307 304 302 302 301 299 299 297 296 295 295 296 294 293 293 291 289 290 293 292 290 288 286 286 286 287 286 285 285 286 288 289 289 289 289 291 294 295 296 297 300 304 306
190 198 220 237 212 203 222 227 229 256 245 211 213 240 251 255 269 275 273 274 278 280 283 285 288 290 292 291 290 290 290 292 294 296 298 299 302 304 305 305 306 306 307 306 304 303 302 301 300 299 297 295 295 294 294 294 294 293 291 292 294 293 290 289 288 286 286 287 287 286 285 284 284 285 285 286 289 292 294 296 296 297 299 303 306 308
221 224 236 257 237 240 250 245 242 256 260 252 251 258 264 269 274 274 273 274 276 280 283 284 286 289 291 291 289 288 289 292 293 294 296 298 300 302 304 305 305 306 306 305 304 304 303 301 300 298 297 296 295 293 294 294 293 292 292 293 293 290 287 286 284 283 284 284 284 283 282 281 281 282 285 289 293 295 295 295 297 300 303 306 308 308
246 244 247 251 250 259 254 225 228 248 257 260 264 267 268 271 274 274 275 276 279 283 285 286 287 289 290 290 289 288 290 292 292 293 295 297 299 301 303 304 304 305 305 305 305 305 303 300 299 297 297 297 295 294 295 295 292 292 292 292 289 286 284 282 281 281 282 282 281 279 278 279 282 285 290 294 295 295 295 296 300 304 305 307 308 308
244 245 242 241 242 245 257 259 257 260 262 263 268 271 270 272 275 275 276 279 282 284 285 287 289 289 289 290 291 290 291 292 292 292 294 296 298 300 301 302 303 304 304 304 304 304 302 300 298 298 298 298 296 296 296 294 292 291 290 288 286 284 283 282 281 280 280 279 278 277 279 283 288 292 295 295 294 294 297 300 304 305 305 307 307 307
233 242 233 240 253 254 261 265 265 267 269 264 263 268 271 272 275 277 279 281 283 285 287 288 290 290 290 291 293 291 290 291 292 294 294 295 296 298 299 301 302 302 303 303 304 303 301 299 298 298 298 297 297 298 296 293 292 290 287 285 284 283 282 281 279 278 278 277 277 280 284 289 293 295 295 294 295 297 301 303 305 305 304 305 306 307
226 250 243 244 266 264 250 255 260 266 270 261 261 268 275 277 280 281 282 284 285 286 289 290 290 291 291 292 293 292 290 291 295 295 294 294 296 298 299 301 301 301 302 302 302 301 300 299 299 298 297 297 298 298 296 293 291 288 285 284 283 282 281 279 278 277 277 278 281 286 291 294 295 294 294 296 299 301 303 303 303 304 304 305 306 306
223 244 245 235 251 258 258 260 262 264 267 269 272 275 276 278 281 280 280 283 285 286 288 288 288 290 291 292 294 293 291 293 296 296 294 294 297 298 300 300 300 300 301 302 301 300 299 298 298 297 297 298 298 296 294 291 289 287 285 283 282 280 278 276 276 276 278 282 288 292 294 294 293 294 296 299 302 303 303 302 302 302 303 305 306 306